Regional Weather Roundup
Issued by NWS

Home | Current Version | Previous Version | Graphics & Text | Print | Product List | Glossary Off
Versions: 1 2 3 4 5 6 7 8 9 10 11 12 13 14 15 16 17 18 19 20 21 22 23 24 25 26 27 28 29 30 31 32 33 34 35 36 37 38 39 40 41 42 43 44 45 46 47 48 49 50

000
ASUS43 KMKX 230600
RWRWI

WISCONSIN REGIONAL WEATHER ROUNDUP
NATIONAL WEATHER SERVICE MILWAUKEE/SULLIVAN WI
100 AM CDT SAT SEP 23 2017

NOTE: "FAIR" INDICATES FEW OR NO CLOUDS BELOW 12,000 FEET WITH NO
SIGNIFICANT WEATHER AND/OR OBSTRUCTIONS TO VISIBILITY.

WIZ001-002-006>008-014>016-023>028-230700-
NORTHWEST WISCONSIN

CITY           SKY/WX    TMP DP  RH WIND       PRES   REMARKS
SUPERIOR ARPT  CLOUDY    61  61  99 CALM      29.79S
ASHLAND        CLEAR     78  67  68 S16G28    29.82R HX  80
6HR MIN TEMP:  67; 6HR MAX TEMP:  81;

HAYWARD        PTCLDY    76  66  71 S13       29.87F
6HR MIN TEMP:  74; 6HR MAX TEMP:  81;

SIREN          MOCLDY    80  65  61 S14G22    29.85S HX  82
CUMBERLAND     CLEAR     72  63  73 S10       29.89F
RICE LAKE      CLEAR     76  65  68 S5        29.90F
CHETEK         CLEAR     76  67  74 S3        29.90S
LADYSMITH      CLEAR     74  67  78 S7        29.93F
EAU CLAIRE     NOT AVBL
MENOMONIE      MOCLDY    80  65  61 S12       29.89F HX  82
NEW RICHMOND   CLOUDY    78  65  65 S10       29.88S HX  80
OSCEOLA        CLOUDY    79  67  66 S10       29.89S HX  81
$$

WIZ003>005-009-010-017-018-230700-
NORTH CENTRAL WISCONSIN

CITY           SKY/WX    TMP DP  RH WIND       PRES   REMARKS
MANITOWISH WTR NOT AVBL
ARBOR VITAE    CLEAR     73  66  80 S12G17    29.94S
WOODRUFF       CLEAR     73  66  80 S12G17    29.94S
RHINELANDER    CLEAR     73  66  78 SW9       29.97S
6HR MIN TEMP:  70; 6HR MAX TEMP:  74;

EAGLE RIVER    CLEAR     69  66  89 SW3       29.96R
LAND O LAKES   CLEAR     70  65  83 S3        29.97S
PHILLIPS       MOCLDY    74  68  81 S10       29.94R
TOMAHAWK       CLEAR     69  64  83 CALM      29.97R
MEDFORD        CLEAR     68  64  88 S8        29.96S
MERRILL        CLEAR     75  67  74 SW6       29.97S
$$

WIZ029-030-035-036-043>047-230700-
CENTRAL WISCONSIN

CITY           SKY/WX    TMP DP  RH WIND       PRES   REMARKS
WAUSAU         CLEAR     75  65  70 S7        29.95F
6HR MIN TEMP:  75; 6HR MAX TEMP:  82;

MOSINEE        CLEAR     68  64  88 S7        29.99S
MARSHFIELD     CLEAR     71  64  78 S7        29.96S
6HR MIN TEMP:  70; 6HR MAX TEMP:  81;

STEVENS POINT  CLEAR     72  64  75 S7        29.98F
WAUPACA        CLEAR     71  67  87 CALM      29.99R
WAUTOMA        CLEAR     70  66  87 CALM      29.99S
6HR MIN TEMP:  68; 6HR MAX TEMP:  82;

WISC RAPIDS    CLEAR     76  65  68 S8        29.98S
6HR MIN TEMP:  74; 6HR MAX TEMP:  81;

CAMP DOUGLAS   NOT AVBL
$$

WIZ011>013-019>022-031-037>040-048>050-230700-
NORTHEAST WISCONSIN

CITY           SKY/WX    TMP DP  RH WIND       PRES   REMARKS
ANTIGO         CLEAR     68  65  90 S7        29.99F
SHAWANO        CLEAR     73  68  86 CALM      29.97S
OCONTO         CLEAR     69  66  92 CALM      29.96F
STURGEON BAY   CLEAR     71  66  84 S10       29.98F
6HR MIN TEMP:  70; 6HR MAX TEMP:  72;

GREEN BAY      CLEAR     73  68  84 S8        29.98F
6HR MIN TEMP:  71; 6HR MAX TEMP:  79;

MANITOWOC      CLEAR     71  66  84 S8        30.01S
6HR MIN TEMP:  70; 6HR MAX TEMP:  72;

APPLETON       CLEAR     72  61  68 S7        29.99S
CLINTONVILLE   CLEAR     68  64  88 S3        29.98S
OSHKOSH        CLEAR     69  64  84 S8        30.00R
6HR MIN TEMP:  69; 6HR MAX TEMP:  82;

$$

WIZ032>034-041-042-053>061-230700-
SOUTHWEST WISCONSIN

CITY           SKY/WX    TMP DP  RH WIND       PRES   REMARKS
LA CROSSE      CLEAR     79  68  69 S12       29.93R HX  81
6HR MIN TEMP:  79; 6HR MAX TEMP:  89;

SPARTA         CLEAR     79  66  64 S7        29.96S HX  81
VIROQUA        CLEAR     74  67  79 S8        29.99S
BOSCOBEL       CLEAR     74  66  76 W3        29.98R
6HR MIN TEMP:  72; 6HR MAX TEMP:  87;

PRAIRIE DU CHI CLEAR     74  63  67 E5        29.97R
PLATTEVILLE    CLEAR     73  67  83 SE6       30.01S
$$

WIZ056-057-062-063-064-067-068-230700-
SOUTH CENTRAL WISCONSIN

CITY           SKY/WX    TMP DP  RH WIND       PRES   REMARKS
REEDSBURG      CLEAR     75  65  72 SE3       29.99S
BARABOO/DELLS  CLEAR     74  63  68 SW7       30.00S
LONE ROCK      NOT AVBL
MINERAL POINT  CLEAR     72  68  88 SE6       30.02S
MADISON        CLEAR     74  65  73 S6        30.01S
6HR MIN TEMP:  73; 6HR MAX TEMP:  85;

MIDDLETON      CLEAR     72  64  78 CALM      30.02S
WATERTOWN      CLEAR     69  65  86 S3        30.02S
MONROE         CLEAR     73  63  68 S9        30.04R
JANESVILLE     CLEAR     70  61  73 S3        30.02S
$$

WIZ051-052-058>065-066-070>072-230700-
SOUTHEAST WISCONSIN

CITY           SKY/WX    TMP DP  RH WIND       PRES   REMARKS
MILWAUKEE      CLEAR     76  67  73 SW7       30.02F
6HR MIN TEMP:  76; 6HR MAX TEMP:  83;

WAUKESHA       CLEAR     73  63  68 S6        30.05S
MILWAUKEE/TIMM CLEAR     73  63  68 S5        30.04S
RACINE         CLEAR     74  67  78 S5        30.05S
6HR MIN TEMP:  73; 6HR MAX TEMP:  79;

BURLINGTON     CLEAR     65  65 100 CALM      30.04S
KENOSHA        CLEAR     74  66  76 S5        30.04S
6HR MIN TEMP:  74; 6HR MAX TEMP:  81;

FOND DU LAC    CLEAR     71  64  78 S7        30.01S
6HR MIN TEMP:  70; 6HR MAX TEMP:  81;

SHEBOYGAN      CLEAR     65  65 100 CALM      30.01F FOG
6HR MIN TEMP:  64; 6HR MAX TEMP:  77; 6HR PCP: TRACE;

WEST BEND        N/A     68  64  88 SW3       30.03S
JUNEAU         CLEAR     69  64  82 SE5       30.03S
$$

LSZ147-162-230700-
LAKE SUPERIOR

STATION/POSITION TIME  TEMP    WIND        PRES    WAVE
                       AIR SEA DIR/SP/G            HT/PER
                 (UTC) (F)     (DEG/KT/KT) (MB)    (FT/S)
W MID LAKE BUOY  0450   63 54  150/ 10/ 12 1008.5F   1/ 3
DEVILS ISLAND    0500          190/ 11/ 15 1008.1F
SAXON HARBOR     0540   81     190/ 13/ 21 1008.8R
$$

LMZ867-665-643>646-230700-
LAKE MICHIGAN

STATION/POSITION TIME  TEMP    WIND        PRES    WAVE
                       AIR SEA DIR/SP/G            HT/PER
                 (UTC) (F)     (DEG/KT/KT) (MB)    (FT/S)
S GREEN BAY BUOY 0430   71 67  190/ 10/ 12 1015.0F
N MID LAKE BUOY  0450   68 66  160/  8/  8 1015.8F   2/ 4
NORTHPORT PIER   0540   71     170/  5/ 12 1014.2F
KEWAUNEE LAKESHO 0530   64     180/  5/  5 1014.8F
SHEBOYGAN LAKESH 0500   74     190/  6/  7 1016.0S
PORT WASHINGTON  0530   69      CALM  /  2 1017.3S
ATWATER BUOY     0409   72 65  180/ 10/ 12 1016.9R
MILWAUKEE LAKESH 0530   79     220/  6/  7   N/A
S MID LAKE BUOY  0450   74 70  150/  8/  8 1017.0R   0
KENOSHA   LAKESH 0500   78     190/  9/ 12 1016.6
$$

TC  - TEMPERATURE IN CELSIUS
VSB - VISIBILITY IN STATUTE MILES
WCI - WIND CHILL INDEX
HX  - HEAT INDEX





USA.gov is the U.S. government's official web portal to all federal, state and local government web resources and services.